Brainerd, MN

10:08 AM CDT on April 22, 2018 (GMT -0500)
Brainerd-Crow Wing County Regional

Weather History for KBRD - January, 2013

Change the Weather History Date:

Tuesday, January 8, 2013

  Actual Average Record
Temperature  
Mean Temperature 19 °F 11 °F  
Max Temperature 33 °F 20 °F 51 °F (2003)
Min Temperature 5 °F 0 °F -39 °F (1982)
Degree Days  
Heating Degree Days 46 54  
Month to date heating degree days 431  
Cooling Degree Days 0 0  
Month to date cooling degree days 0  
Moisture  
Dew Point 14 °F    
Average Humidity 78    
Maximum Humidity 92    
Minimum Humidity 64    
Precipitation  
Precipitation 0.00 in 0.03 in 0.28 in (1992)
Month to date precipitation 0.22  
Snow  
Snow 0.00 in 0.30 in - ()
Month to date snowfall 2.7  
Snow Depth -    
Sea Level Pressure  
Sea Level Pressure 29.86 in    
Wind  
Wind Speed 3 mph (SSW)    
Max Wind Speed 13 mph    
Max Gust Speed 22 mph    
Visibility 6 miles    
Events Fog    
T = Trace of Precipitation, MM = Missing Value Source: NWS Daily Summary

Daily Weather History Graph

Daily Weather History Graph

Search for Another Location

Airport or City:

Astronomy

Jan. 08, 2013 Rise Set
Actual Time 7:58 AM CST 4:48 PM CST
Civil Twilight 7:24 AM CST 5:22 PM CST
Nautical Twilight 6:46 AM CST 6:00 PM CST
Astronomical Twilight 6:10 AM CST 6:36 PM CST
Moon 4:31 AM CST (1/8) 1:51 PM CST (1/8)
Length of Visible Light 9h 57m
Length of Day
8h 49m
Waning Crescent, 13% of the Moon is Illuminated
Jan 8
Waning Crescent
Jan 11
New
Jan 18
First Quarter
Jan 26
Full
Feb 3
Last Quarter

Hourly Weather History & Observations

Time (CST) Temp. Windchill Dew Point Humidity Pressure Visibility Wind Dir Wind Speed Gust Speed Precip Events Conditions
12:53 AM 19.0 °F - 12.9 °F 77% 29.96 in 9.0 mi Calm Calm - N/A   Clear
1:07 AM 14.0 °F - 10.4 °F 86% 29.91 in 1.5 mi Calm Calm - N/A   Clear
1:09 AM 14.0 °F - 10.4 °F 86% 29.91 in 0.8 mi Calm Calm - N/A   Clear
1:19 AM 12.2 °F - 8.6 °F 85% 29.91 in 0.2 mi Calm Calm - N/A Fog Light Freezing Fog
1:41 AM 10.4 °F 4.0 °F 8.6 °F 92% 29.91 in 0.8 mi South 3.5 mph - N/A   Clear
1:44 AM 12.2 °F 6.1 °F 8.6 °F 85% 29.91 in 1.5 mi South 3.5 mph - N/A   Clear
1:48 AM 12.2 °F 6.1 °F 8.6 °F 85% 29.91 in 4.0 mi South 3.5 mph - N/A   Clear
1:53 AM 10.9 °F - 7.0 °F 84% 29.97 in 1.5 mi Calm Calm - N/A   Clear
2:01 AM 12.2 °F - 6.8 °F 79% 29.91 in 1.0 mi Calm Calm - N/A   Haze
2:09 AM 12.2 °F 6.1 °F 8.6 °F 85% 29.91 in 2.0 mi South 3.5 mph - N/A   Clear
2:19 AM 12.2 °F 6.1 °F 6.8 °F 79% 29.91 in 8.0 mi South 3.5 mph - N/A   Clear
2:53 AM 10.9 °F - 6.1 °F 81% 29.97 in 8.0 mi Calm Calm - N/A   Clear
3:53 AM 6.1 °F - 1.9 °F 83% 29.96 in 8.0 mi Calm Calm - N/A   Clear
4:53 AM 6.1 °F - 1.0 °F 80% 29.97 in 8.0 mi Calm Calm - N/A   Clear
5:53 AM 5.0 °F - -2.0 °F 73% 29.96 in 8.0 mi Calm Calm - N/A   Clear
6:53 AM 6.1 °F - -0.9 °F 73% 29.96 in 8.0 mi Calm Calm - N/A   Clear
7:53 AM 9.0 °F 0.6 °F 3.0 °F 77% 29.98 in 7.0 mi South 4.6 mph - N/A   Clear
8:53 AM 10.0 °F - 5.0 °F 80% 29.94 in 5.0 mi Calm Calm - N/A   Haze
9:53 AM 19.9 °F 13.4 °F 16.0 °F 85% 29.95 in 9.0 mi South 4.6 mph - N/A   Partly Cloudy
10:53 AM 26.1 °F 20.5 °F 21.0 °F 81% 29.92 in 10.0 mi SSE 4.6 mph - N/A   Overcast
11:53 AM 28.9 °F 23.9 °F 23.0 °F 78% 29.88 in 8.0 mi SE 4.6 mph - N/A   Mostly Cloudy
12:53 PM 32.0 °F 26.4 °F 21.9 °F 66% 29.82 in 10.0 mi ESE 5.8 mph - N/A   Overcast
1:53 PM 33.1 °F 30.0 °F 21.9 °F 64% 29.78 in 9.0 mi Variable 3.5 mph - N/A   Overcast
2:53 PM 32.0 °F 24.8 °F 21.9 °F 66% 29.76 in 9.0 mi SE 8.1 mph - N/A   Mostly Cloudy
3:53 PM 32.0 °F 26.4 °F 21.9 °F 66% 29.76 in 7.0 mi SE 5.8 mph - N/A   Overcast
4:53 PM 32.0 °F 23.6 °F 23.0 °F 69% 29.75 in 7.0 mi South 10.4 mph - N/A   Overcast
5:12 PM 32.0 °F 23.0 °F 23.0 °F 69% 29.69 in 8.0 mi South 11.5 mph - N/A   Overcast
5:53 PM 30.9 °F 21.2 °F 23.0 °F 72% 29.77 in 7.0 mi SSW 12.7 mph - N/A   Overcast
6:53 PM 30.0 °F 20.0 °F 23.0 °F 75% 29.77 in 6.0 mi SW 12.7 mph - N/A   Haze
7:53 PM 30.0 °F 20.5 °F 23.0 °F 75% 29.78 in 6.0 mi SW 11.5 mph - N/A   Haze
8:32 PM 30.2 °F 20.2 °F 23.0 °F 75% 29.72 in 6.0 mi WSW 12.7 mph 21.9 mph N/A   Haze
8:53 PM 30.0 °F 20.5 °F 24.1 °F 79% 29.79 in 6.0 mi West 11.5 mph - N/A   Haze
9:19 PM 28.4 °F 20.4 °F 21.2 °F 74% 29.72 in 6.0 mi WSW 8.1 mph - N/A   Haze
9:30 PM 26.6 °F 17.5 °F 21.2 °F 80% 29.72 in 6.0 mi SW 9.2 mph - N/A   Haze
9:53 PM 26.1 °F 16.2 °F 21.0 °F 81% 29.79 in 6.0 mi SW 10.4 mph - N/A   Haze
10:53 PM 27.0 °F 16.7 °F 21.9 °F 81% 29.81 in 7.0 mi WSW 11.5 mph - N/A   Clear
11:53 PM 30.0 °F 21.7 °F 23.0 °F 75% 29.83 in 10.0 mi WSW 9.2 mph - N/A   Partly Cloudy